Regional Weather Roundup
Issued by NWS Charleston, WV

Home | Current Version | Previous Version | Graphics & Text | Print | Product List | Glossary On
Versions: 1 2 3 4 5 6 7 8 9 10 11 12 13 14 15 16 17 18 19 20 21 22 23 24 25 26 27 28 29 30 31 32 33 34 35 36 37 38 39 40 41 42 43 44 45 46 47 48 49 50
000
ASUS41 KRLX 050210
RWRRLX
West Virginia Regional Weather Roundup
National Weather Service Charleston WV
1000 PM EDT SAT JUL 04 2015

Note: "fair" indicates few or no clouds below 12,000 feet with no
significant weather and/or obstructions to visibility.

WVZ003-050300-
Northern Panhandle of West Virginia

CITY           SKY/WX    TMP DP  RH WIND       PRES   REMARKS
WHEELING       CLEAR     69  59  70 CALM      30.04R
$$

WVZ009-050300-
Northwest West Virginia

CITY           SKY/WX    TMP DP  RH WIND       PRES   REMARKS
PARKERSBURG    MOCLDY    68  62  81 CALM      30.05R
$$

WVZ006-050300-
Western West Virginia

CITY           SKY/WX    TMP DP  RH WIND       PRES   REMARKS
HUNTINGTON     MOCLDY    70  68  93 CALM      30.03R
$$

WVZ015-050300-
West Central West Virginia

CITY           SKY/WX    TMP DP  RH WIND       PRES   REMARKS
CHARLESTON     MOCLDY    70  68  93 SE3       30.04R
$$

WVZ022-031-050300-
North Central West Virginia

CITY           SKY/WX    TMP DP  RH WIND       PRES   REMARKS
CLARKSBURG     MOCLDY    68  62  81 CALM      30.04R
MORGANTOWN     PTCLDY    70  60  70 CALM      30.05R
$$

WVZ025-035-042-045-050300-
Southern West Virginia

CITY           SKY/WX    TMP DP  RH WIND       PRES   REMARKS
BECKLEY        MOCLDY    65  62  90 E3        30.11R
LOGAN            N/A     70  68  94 CALM      30.03S FOG
BLUEFIELD      PTCLDY    69  62  78 SW3       30.13R
LEWISBURG      CLOUDY    68  64  84 CALM      30.11R
$$

WVZ047-050300-
Northern Mountains of West Virginia

CITY           SKY/WX    TMP DP  RH WIND       PRES   REMARKS
ELKINS         PTCLDY    64  61  90 CALM      30.09R FOG
$$

WVZ052-050300-
Eastern Panhandle of West Virginia

CITY           SKY/WX    TMP DP  RH WIND       PRES   REMARKS
MARTINSBURG    MOCLDY    70  66  87 CALM      30.03R
PETERSBURG     MOCLDY    67  61  83 W3        30.04R
$$


USA.gov is the U.S. government's official web portal to all federal, state and local government web resources and services.